Wind_Speed
12 10 9 9 9 9 9 9 8 5 3 1 2 4 6 7 8 9 10 12 14 15 16 18 19 21 23 25 27 29 31 33 34 36 37 37 38 38 37 37 36 35 34 33 32 31 30 29 29 29 30 29 29 28 27 26 25 25 25 25 25 24 23 22 22 21 21 21 20 19 18 16 15 14 15 17 18 18 18 16 14 12 11 10 9
9 8 8 8 8 8 8 6 3 0 2 5 7 8 9 11 11 13 15 16 18 19 20 22 24 27 29 31 33 35 36 37 38 38 38 38 37 37 36 35 34 34 33 32 32 31 31 30 30 31 31 30 29 29 28 28 27 26 26 26 26 25 25 25 25 25 24 22 20 18 16 15 16 18 19 20 21 20 20 18 17 15 12 10 9
8 9 8 8 7 7 5 2 3 6 8 10 11 12 13 15 16 18 19 20 21 24 26 29 31 33 35 36 37 37 38 38 38 38 37 36 36 35 34 34 34 34 34 33 33 33 33 32 32 32 32 31 31 30 30 29 28 27 27 26 26 26 26 26 26 25 23 21 19 18 19 20 21 22 23 23 23 23 23 23 21 19 16 13 10
10 9 8 7 6 4 3 6 9 11 13 14 15 16 18 20 21 21 22 24 27 30 32 34 35 36 37 37 37 37 37 37 37 36 36 35 34 34 34 34 34 35 35 35 35 35 35 35 34 34 34 33 33 32 31 31 29 28 27 26 26 27 27 26 25 24 22 21 22 23 25 26 26 27 27 27 28 29 29 29 28 26 22 18 13
10 8 7 6 4 4 9 12 14 16 17 18 20 21 23 24 25 26 28 31 33 34 35 36 36 36 36 36 36 35 35 35 35 34 34 33 33 33 34 34 35 36 36 36 36 36 36 36 36 36 36 36 36 35 34 32 31 29 27 27 27 28 28 28 27 27 26 26 27 29 29 30 30 30 30 31 32 33 35 36 35 34 31 26 20
9 8 6 5 6 11 16 17 18 20 22 24 25 26 27 29 31 32 34 35 35 35 35 35 35 35 35 35 34 33 33 33 33 33 32 32 32 33 33 34 35 36 36 37 37 37 37 37 37 38 38 38 39 38 37 34 32 29 28 29 29 30 31 31 31 31 30 30 31 31 31 31 31 32 33 33 35 36 38 41 41 40 38 34 28
8 7 7 10 14 18 20 21 23 25 27 29 30 31 33 35 36 36 36 36 36 35 34 34 34 33 33 33 33 33 32 33 33 33 33 33 33 33 33 34 34 35 36 37 38 37 37 38 39 39 40 41 41 40 39 36 33 31 30 31 32 33 33 32 32 33 32 32 32 31 31 31 32 33 34 34 36 38 40 43 44 44 44 41 35
8 10 13 17 20 23 25 27 29 31 32 34 35 37 38 38 37 37 36 35 34 33 32 32 32 32 32 32 32 32 32 32 33 33 33 33 33 33 34 34 35 36 37 38 39 38 39 39 40 41 42 42 43 43 42 40 37 34 33 33 34 34 34 34 33 33 32 32 31 31 31 31 33 34 35 36 37 39 41 44 47 48 48 47 43
13 17 20 23 26 28 31 33 35 36 37 38 39 39 39 38 37 35 34 33 32 31 31 31 31 31 32 32 32 32 32 33 33 33 33 33 33 34 34 34 35 35 36 36 37 38 40 41 42 42 43 44 45 45 45 44 42 39 37 36 35 35 36 36 35 34 33 33 32 32 32 32 33 35 36 37 37 39 42 45 48 51 51 52 50
19 23 26 28 31 34 36 38 39 39 39 39 39 38 37 36 35 34 32 31 31 30 30 31 31 31 31 32 32 32 32 33 33 33 33 33 34 34 34 35 35 36 36 37 37 37 38 41 43 44 44 46 47 48 48 47 46 45 43 41 39 38 37 37 36 35 35 34 34 34 34 34 34 36 37 37 37 39 42 45 48 51 54 55 55
26 29 32 34 37 38 39 39 39 40 39 39 38 37 36 34 33 32 31 31 30 31 31 31 32 32 32 32 32 32 32 33 33 33 33 34 34 34 35 36 36 38 39 40 40 39 39 41 43 44 45 47 48 49 49 49 49 49 48 47 45 43 41 40 38 37 36 36 36 35 35 35 36 37 37 37 37 38 41 44 47 50 54 56 56
32 36 38 39 40 40 39 39 39 39 39 38 37 36 35 34 33 32 31 31 31 31 32 32 33 33 32 32 32 32 32 32 32 33 33 34 35 36 37 37 38 39 40 41 42 43 44 44 44 45 46 48 49 50 50 50 50 50 51 50 50 49 47 45 43 41 39 38 37 36 36 36 37 37 38 37 37 38 40 43 46 49 52 54 55
39 40 40 40 40 38 38 37 38 38 38 37 36 35 34 33 33 32 32 32 32 32 33 33 33 33 32 32 32 32 33 33 33 33 34 35 36 37 37 38 39 40 41 42 43 44 45 45 45 46 47 48 48 49 50 51 51 51 51 51 51 51 51 50 49 48 46 44 42 40 38 37 37 37 37 37 38 38 40 42 44 46 49 52 53
41 40 40 39 38 37 37 37 37 37 37 36 35 35 34 34 33 33 33 33 33 33 33 33 33 33 33 33 33 33 33 33 33 33 34 35 36 36 37 38 39 40 41 42 44 44 45 45 45 46 47 48 48 49 49 49 50 50 51 51 51 52 52 52 52 52 52 51 49 47 45 42 41 40 39 39 38 38 39 40 42 44 46 49 51
40 39 38 38 38 37 37 37 37 37 36 36 35 35 35 34 34 34 34 34 34 34 34 33 33 33 33 33 33 33 32 32 32 33 34 35 35 36 37 38 38 38 39 41 42 43 43 43 44 44 45 46 47 47 48 48 48 49 49 49 50 50 50 51 51 52 52 52 52 52 51 49 47 46 45 44 42 41 40 40 40 42 44 45 47
39 38 37 37 38 38 37 37 37 37 36 36 35 35 35 34 34 34 34 34 34 34 33 33 32 32 33 32 32 32 32 32 32 32 33 34 35 36 36 37 36 36 37 38 39 40 40 41 41 42 43 44 44 44 46 47 47 48 48 47 48 48 48 48 49 49 50 50 51 51 51 51 51 51 51 50 49 47 45 43 41 41 41 43 44
37 37 36 37 38 38 38 37 37 36 36 35 35 35 34 34 34 34 34 34 33 33 32 32 32 31 32 31 31 31 31 31 32 32 32 33 34 35 35 35 35 35 35 36 36 36 37 37 38 40 41 43 43 43 44 45 45 45 45 45 46 46 46 46 47 47 46 46 47 47 48 49 49 50 51 52 52 52 51 50 47 45 43 41 41
37 37 37 37 38 38 38 37 37 36 35 34 34 34 34 34 34 34 33 33 32 32 32 32 31 31 31 31 31 31 31 31 31 31 31 32 33 33 34 34 33 33 34 34 33 33 34 35 36 37 39 40 40 41 42 43 43 43 43 43 43 44 44 44 45 45 45 44 44 44 44 45 46 47 48 49 50 51 52 52 51 50 48 45 43
38 38 37 38 38 38 37 36 36 35 34 34 34 34 34 34 34 33 32 32 31 31 31 31 31 30 30 30 30 30 29 29 29 29 30 31 31 32 32 32 32 32 32 32 32 32 32 34 35 36 36 37 37 38 39 39 40 40 40 41 41 42 42 42 43 42 43 43 42 42 42 42 42 43 44 46 47 48 49 50 51 51 51 50 48
38 38 38 38 37 36 35 34 35 35 35 35 35 34 34 34 33 32 32 31 31 31 31 30 30 29 29 28 28 27 28 28 27 28 29 29 30 30 30 30 30 31 30 30 30 30 31 32 33 33 34 35 35 36 36 36 36 37 37 38 38 39 39 40 40 40 40 40 40 40 40 40 40 40 41 42 43 45 46 47 48 48 49 50 50
38 38 37 37 36 35 34 34 35 35 35 35 35 34 34 33 32 32 32 31 30 30 29 29 28 28 27 27 26 26 26 26 26 26 26 27 27 27 27 27 28 28 28 28 28 28 28 29 29 30 30 31 32 33 33 33 33 33 34 34 35 35 36 36 37 37 38 38 38 38 38 38 38 38 39 39 40 41 42 43 44 45 46 47 48
38 38 37 35 35 35 35 35 35 36 36 35 35 34 34 33 32 32 31 30 30 29 28 28 27 27 26 25 25 25 24 24 24 24 24 24 24 25 25 25 25 25 25 25 25 25 25 26 26 26 27 28 29 29 29 29 29 29 30 31 31 32 32 33 33 34 34 35 35 36 36 36 36 36 36 36 37 38 39 40 41 42 42 43 44
38 37 36 35 36 36 36 36 36 36 36 35 35 34 34 33 32 32 31 30 29 28 27 26 26 25 24 24 23 23 23 23 23 22 22 22 22 22 22 23 22 22 22 22 22 23 23 23 23 23 24 25 25 26 25 25 25 25 26 26 27 28 29 29 29 30 30 31 31 32 33 33 33 33 33 34 34 35 35 36 37 38 39 39 40
38 36 35 36 37 37 36 36 36 36 36 35 35 34 34 33 32 31 31 30 29 28 27 26 25 24 23 22 21 21 21 20 20 19 19 19 19 19 19 19 19 19 18 18 18 19 19 19 20 20 21 21 22 22 22 21 22 22 22 22 23 25 26 26 26 26 26 27 28 28 29 29 30 30 31 30 30 31 32 32 33 34 35 36 36
37 36 36 37 37 37 36 36 36 36 35 35 34 33 33 32 31 31 30 29 28 28 27 25 24 23 22 21 20 19 19 18 18 17 17 16 16 15 15 15 15 15 14 14 14 15 15 15 16 17 17 17 18 18 18 18 19 19 19 20 21 22 24 25 25 24 24 24 24 25 25 26 26 27 27 28 27 27 28 28 29 30 31 31 32
36 36 36 37 37 37 37 36 36 35 34 34 33 32 32 31 30 30 29 28 27 26 25 24 23 22 21 20 19 18 17 17 16 15 15 14 14 13 12 12 11 11 11 11 11 11 12 12 13 13 13 14 14 15 15 16 17 17 18 18 19 21 23 23 23 23 23 23 22 22 22 23 23 24 24 24 24 24 25 25 25 25 26 27 27
36 36 36 37 37 37 37 36 35 34 33 32 32 31 30 30 29 28 28 27 26 25 24 23 22 21 20 19 18 17 16 15 14 13 13 12 11 11 10 9 9 9 8 8 8 9 9 9 10 10 10 10 11 12 12 13 13 14 15 16 17 19 21 22 22 22 22 22 22 21 20 20 21 21 21 21 21 21 21 22 22 22 22 22 23
36 36 36 37 37 36 36 35 34 33 32 31 30 30 29 28 27 26 26 25 24 23 23 22 21 20 19 18 17 16 15 14 13 12 11 10 10 9 8 7 7 6 6 6 6 6 6 6 6 7 8 9 9 10 10 11 11 11 12 13 14 16 18 19 19 20 21 21 22 22 21 20 19 19 18 18 19 18 19 19 19 18 18 18 18
35 35 36 37 36 35 34 33 32 31 30 29 29 28 27 26 25 24 23 22 22 21 20 19 18 17 17 16 15 15 14 12 11 10 9 8 8 7 6 5 5 4 4 4 5 5 4 4 5 6 7 7 8 8 10 10 11 11 10 11 12 13 14 15 15 16 18 19 20 21 21 21 20 19 17 17 16 16 16 16 16 16 16 15 15
35 35 36 36 35 34 33 32 31 30 29 28 27 26 24 23 22 21 20 19 19 18 17 16 15 15 14 13 13 12 11 11 9 8 6 5 5 4 3 3 3 3 3 3 4 4 3 4 5 6 6 7 8 8 9 10 10 10 10 11 11 11 12 12 10 11 13 15 16 18 18 19 19 18 17 16 15 15 14 14 14 14 14 13 13
35 36 36 35 35 34 33 32 31 29 28 27 25 23 22 20 19 18 17 16 15 15 14 13 12 11 11 11 10 10 9 9 8 7 5 3 2 1 1 1 1 2 3 4 4 4 4 4 5 6 7 8 8 9 9 9 9 9 9 10 10 11 11 10 8 8 9 12 13 15 15 15 15 15 15 14 14 14 13 12 11 11 11 11 11
35 36 36 35 34 33 32 31 30 28 27 25 23 21 20 18 17 16 15 14 13 12 11 10 10 9 9 9 7 7 7 7 6 6 5 4 3 2 1 2 2 1 2 3 4 4 4 5 5 5 6 6 7 8 9 9 9 9 10 10 10 10 10 9 8 8 9 11 12 14 16 15 14 13 14 13 13 12 12 12 11 10 10 9 9
36 36 35 35 34 33 32 30 29 27 25 24 22 20 19 17 15 14 12 11 10 9 9 9 9 9 8 7 5 3 3 3 3 4 4 4 5 5 3 2 1 1 2 1 3 3 4 4 4 4 5 6 6 7 8 8 8 9 9 9 10 10 10 10 10 11 11 13 14 16 17 16 14 13 13 13 13 12 12 12 12 12 11 10 9
36 36 35 34 33 32 31 30 28 26 24 22 21 19 18 16 14 12 10 9 9 8 8 9 9 8 7 5 4 2 1 0 2 3 3 4 5 6 4 2 1 2 2 1 2 3 4 4 5 5 5 6 7 7 7 7 8 8 8 9 9 9 10 10 11 12 13 15 15 16 16 15 13 12 12 13 13 13 13 13 13 13 14 13 12
35 35 34 33 32 32 31 29 27 25 23 21 20 19 17 16 15 13 11 10 9 8 8 8 8 7 6 5 4 4 3 1 1 3 5 4 4 6 6 4 3 3 3 3 3 4 4 5 7 8 8 8 8 8 8 8 8 8 8 9 9 9 10 10 11 12 13 14 15 15 15 15 14 13 12 12 12 12 13 13 14 15 16 16 15
35 34 33 33 33 32 31 29 27 25 23 21 20 19 18 17 16 15 14 14 13 12 10 8 8 8 7 6 6 5 4 3 3 4 5 6 6 7 8 8 7 6 6 6 6 7 7 8 9 10 10 10 9 8 8 8 8 8 8 8 9 9 9 10 10 11 13 14 14 15 15 16 15 15 14 13 13 13 13 13 13 14 15 16 17
34 34 33 33 33 32 30 28 26 25 23 21 20 19 18 16 14 13 13 13 13 11 9 9 9 8 7 7 9 9 6 5 5 5 4 6 8 9 9 10 10 9 9 9 10 10 11 11 12 12 12 11 10 9 8 9 9 9 10 9 9 9 9 9 10 11 12 14 15 15 15 15 15 15 15 15 14 14 14 14 14 14 14 15 17
34 34 34 34 33 32 30 28 26 25 23 22 20 19 17 14 12 11 11 12 11 8 8 9 9 8 8 9 11 11 8 7 7 6 5 5 9 11 11 11 12 12 12 12 12 13 14 15 15 16 15 13 13 11 10 10 10 10 11 12 12 11 11 11 12 12 13 14 14 13 14 15 15 15 15 15 16 15 16 16 16 17 17 18 19
34 34 34 34 33 32 30 29 27 25 24 22 20 18 16 14 12 12 12 12 11 9 8 10 10 10 10 11 11 11 10 10 9 8 7 7 8 11 13 14 14 14 14 14 14 15 16 16 17 17 17 16 15 15 14 14 14 13 13 13 13 14 14 14 14 14 14 13 12 12 13 15 16 16 16 16 16 17 17 17 18 19 21 22 22
34 34 34 34 33 32 30 29 28 26 25 23 21 20 19 16 14 14 13 12 10 9 10 11 12 13 13 12 12 12 12 12 12 11 11 10 9 10 13 16 17 17 17 17 17 17 17 17 17 17 17 17 17 17 18 18 18 18 17 15 15 15 16 17 17 16 16 16 15 14 14 15 16 17 17 17 17 18 19 21 22 23 24 25 26
34 34 34 34 33 32 31 30 29 28 26 24 23 22 22 19 17 15 14 13 12 13 14 15 16 17 17 15 13 13 13 13 14 13 13 12 12 12 15 18 20 20 20 21 21 20 20 18 18 18 18 18 19 20 20 21 22 22 21 20 19 19 20 20 20 20 20 20 20 20 19 18 17 17 19 19 20 20 22 23 25 26 26 27 27
34 34 35 35 34 33 32 31 30 29 27 25 24 24 25 23 21 18 16 16 17 17 18 19 19 19 18 18 16 15 14 15 16 17 15 14 14 16 19 22 22 22 22 22 23 23 22 21 20 20 21 21 22 22 22 23 24 25 25 25 25 26 26 26 26 26 26 25 25 25 25 24 23 22 22 23 23 23 23 24 25 26 27 27 29
34 34 35 35 35 34 34 33 32 31 29 27 26 26 27 26 24 20 18 18 19 20 20 21 21 21 21 21 20 19 17 18 19 20 18 16 17 19 21 23 24 24 25 24 24 25 25 24 24 24 25 25 25 25 25 25 26 27 28 29 31 31 31 31 31 31 31 30 29 29 29 29 29 29 29 28 28 28 29 30 30 31 31 32 33
35 35 35 35 35 35 35 34 34 33 31 29 29 29 28 27 25 23 21 21 22 23 23 24 24 24 24 24 24 23 22 22 22 22 21 21 23 23 23 22 23 24 26 26 27 27 28 28 27 27 28 28 28 28 28 28 29 30 32 34 36 36 35 34 34 33 33 32 32 32 32 33 34 35 35 35 35 35 36 36 37 38 39 39 40
38 37 36 35 35 35 35 36 35 35 34 32 32 31 30 28 27 25 24 24 25 25 25 26 27 27 26 26 26 26 26 26 26 26 25 25 26 26 25 25 25 26 27 27 28 29 30 31 30 31 31 31 31 32 32 32 32 34 36 37 37 38 38 38 37 35 34 34 34 34 35 36 37 39 40 40 41 41 41 43 44 45 45 46 46
42 40 38 35 34 35 36 36 37 36 35 34 34 33 32 31 29 28 27 27 27 28 28 28 28 28 27 27 27 26 27 29 31 30 28 26 26 26 27 27 28 30 31 31 31 32 33 34 34 34 35 35 35 35 35 35 35 36 38 37 37 38 40 41 40 37 37 37 37 38 39 40 41 43 44 45 46 46 48 49 50 50 50 50 49
43 41 39 37 36 36 36 37 36 36 36 35 35 34 34 33 31 30 29 29 29 30 30 29 28 28 27 27 27 27 28 30 33 33 32 29 28 28 29 29 30 31 33 34 35 37 38 38 38 39 39 39 38 38 38 38 38 39 39 38 37 39 42 43 42 41 41 43 42 42 42 43 44 46 48 49 50 51 53 54 54 53 52 52 51
43 42 41 40 39 38 37 37 36 36 36 35 35 34 34 33 32 31 31 31 31 31 30 30 29 29 28 27 28 29 30 32 34 35 35 34 33 33 34 34 34 35 36 37 39 40 42 42 42 42 42 40 39 40 40 40 40 39 38 39 40 42 44 44 44 45 47 48 49 48 48 48 49 50 51 52 54 55 56 57 57 55 55 56 57
42 42 41 40 39 38 37 36 36 35 35 34 34 34 33 33 33 32 31 30 31 31 31 31 32 31 31 30 31 33 34 35 36 36 37 38 38 38 38 38 39 40 41 41 41 42 42 42 43 43 43 42 42 42 42 42 41 41 41 42 44 45 45 46 47 49 51 53 54 54 55 55 54 54 54 55 56 58 59 59 59 59 60 62 64
42 41 41 40 39 37 36 35 35 34 33 33 33 33 33 33 33 33 32 32 33 33 34 35 35 35 35 35 36 37 38 39 39 39 40 41 42 42 43 43 43 43 44 44 43 41 41 41 42 43 44 45 45 46 46 46 46 46 46 47 49 49 48 48 49 52 54 56 58 59 59 58 58 58 58 59 60 62 62 63 63 65 66 68 69
42 40 39 38 37 36 35 34 33 33 33 33 33 33 34 35 36 36 35 35 36 36 37 38 38 38 38 38 39 41 42 42 42 43 43 43 44 44 45 46 46 46 46 46 45 43 43 45 46 47 49 50 51 52 53 53 53 53 53 53 54 55 54 54 54 55 58 60 61 62 61 61 62 63 64 64 65 65 66 67 69 72 73 74 75
Wind_Direction
255 252 253 253 254 257 258 264 273 286 301 317 78 84 81 83 92 100 104 105 104 104 103 103 101 99 98 97 96 95 94 93 93 92 90 89 87 85 83 80 78 75 74 72 71 70 69 68 66 65 63 62 61 59 59 60 61 62 64 66 67 67 66 67 66 66 65 63 61 57 54 49 45 41 38 37 36 33 29 25 18 7 349 331 304
238 235 238 241 246 254 259 263 271 20 91 99 97 97 99 101 104 107 108 108 108 107 106 104 103 101 99 98 97 96 96 95 93 92 89 86 84 81 78 76 74 73 72 70 69 67 66 65 64 64 63 63 62 61 61 61 63 65 66 66 65 63 63 64 65 66 66 66 65 63 60 58 55 52 49 45 42 40 35 31 26 18 4 343 318
218 222 230 237 246 258 256 218 119 104 105 106 105 107 109 110 109 109 110 110 110 109 106 105 103 102 100 98 98 97 96 94 91 88 85 83 80 78 75 74 72 71 70 69 68 67 66 65 65 65 65 65 64 64 63 63 65 67 67 66 64 61 62 65 67 68 68 69 69 68 65 62 58 55 52 50 48 45 41 37 32 25 17 1 337
211 218 227 234 246 244 168 121 111 109 112 112 113 113 114 113 112 112 112 112 111 109 106 104 103 101 100 99 97 96 93 91 88 86 83 81 79 77 75 74 72 71 70 69 68 67 67 66 66 66 66 66 65 65 65 66 67 68 69 68 65 63 64 67 69 70 70 71 72 70 67 63 60 58 56 53 50 47 43 40 36 31 25 14 354
211 216 219 224 222 161 127 116 113 115 117 118 117 116 115 114 114 114 113 112 110 108 105 104 103 101 99 98 96 94 91 89 87 85 84 82 80 79 77 75 73 71 70 69 68 67 67 66 66 66 66 66 66 66 67 68 70 71 71 69 66 65 66 67 68 70 70 72 73 70 67 64 61 58 55 53 50 48 44 40 37 33 28 21 7
213 210 200 183 149 131 121 117 119 120 120 119 117 116 115 115 114 114 112 111 108 106 104 102 101 99 99 97 95 93 91 89 88 86 85 83 82 80 78 76 74 72 70 69 67 67 66 66 66 66 66 66 66 67 68 70 72 73 73 71 69 68 68 69 69 70 70 71 72 70 66 63 60 58 56 54 51 48 44 40 37 34 30 25 15
197 179 151 136 132 126 122 122 123 122 120 119 118 117 115 115 114 113 111 108 105 103 101 100 99 98 97 95 94 92 91 89 88 87 85 83 82 80 78 76 74 73 71 70 68 67 67 67 67 67 67 67 67 68 69 70 72 74 74 73 72 71 71 71 72 72 72 72 71 69 66 63 61 59 57 54 51 47 45 42 38 36 32 27 22
157 139 130 129 129 127 125 125 124 122 120 120 119 117 116 114 113 111 108 105 103 102 101 99 98 97 96 94 93 91 90 90 88 86 85 83 81 79 77 76 74 73 71 70 69 68 67 68 68 68 68 68 68 69 69 70 72 73 74 74 73 73 73 74 74 74 74 72 70 68 65 64 61 59 57 54 51 48 45 42 39 37 34 30 27
132 128 127 129 129 127 126 125 124 122 121 120 119 118 116 114 111 109 106 104 103 102 100 99 97 96 95 93 92 91 90 89 87 86 84 83 81 79 77 76 75 73 71 71 71 70 69 68 68 68 69 69 69 69 69 70 71 72 73 73 73 74 74 74 74 74 74 72 69 67 65 64 62 59 57 54 51 48 45 43 41 39 37 35 33
128 127 128 129 128 127 126 125 124 123 122 121 119 117 114 112 109 107 105 104 103 101 100 98 97 96 95 94 93 91 90 89 87 86 84 83 81 79 78 77 76 75 76 76 76 75 72 69 68 67 68 69 69 69 69 69 69 70 70 71 72 72 72 72 72 72 72 71 68 66 64 63 61 59 58 55 51 49 47 44 43 42 41 40 39
129 129 129 129 128 127 126 125 124 123 122 120 118 115 113 110 108 106 105 104 102 101 100 99 98 98 97 95 94 93 91 90 88 87 86 85 83 82 81 80 79 79 79 78 77 76 75 74 72 70 69 69 68 68 68 67 67 68 68 68 69 69 69 69 69 69 69 68 66 65 64 62 61 59 58 56 53 51 49 47 45 45 45 46 47
130 129 129 128 128 127 126 125 124 123 121 119 116 114 112 110 108 106 105 104 102 101 100 100 100 99 98 97 96 95 93 91 90 89 88 87 86 85 84 83 83 81 80 80 79 78 77 77 76 73 71 69 68 67 66 66 66 66 66 66 66 66 66 66 66 66 66 65 64 64 63 61 60 59 58 57 55 53 52 50 48 48 49 51 54
130 129 129 129 129 128 127 125 124 122 119 116 114 112 111 109 107 106 105 104 103 102 102 102 102 102 101 100 99 97 96 94 92 91 90 89 88 87 86 85 84 82 82 81 80 79 79 78 77 75 73 71 70 68 67 66 65 65 64 64 64 64 64 64 64 64 64 63 63 62 61 61 60 59 59 58 57 55 55 54 53 52 52 54 57
130 130 131 131 130 128 126 124 122 119 116 114 113 111 110 108 107 106 105 105 105 105 105 105 105 104 103 101 100 98 96 95 94 94 93 92 90 89 87 85 84 83 83 83 81 81 80 79 78 76 75 74 71 70 69 67 66 65 64 64 63 63 63 62 62 62 62 62 61 61 61 60 60 60 60 60 59 58 57 56 56 57 57 57 59
131 132 133 132 130 128 125 123 120 117 115 113 111 110 109 108 107 106 107 107 107 108 107 107 105 104 103 101 100 98 97 97 97 97 96 94 93 91 89 86 85 85 85 84 83 82 81 80 79 77 76 75 72 70 70 69 67 66 65 65 64 64 63 62 62 61 61 61 61 60 60 60 60 60 60 60 60 60 60 59 59 60 61 62 63
133 134 133 132 129 126 124 121 118 115 113 112 110 109 108 107 107 108 108 108 109 108 107 106 105 104 103 102 101 99 98 99 98 98 97 96 94 92 90 89 88 88 86 86 85 84 84 82 80 77 75 74 73 72 71 70 68 67 65 64 64 64 64 63 62 62 61 61 61 60 60 60 60 60 60 60 60 60 61 61 61 62 63 65 67
135 134 133 130 127 124 121 119 117 114 113 112 111 110 109 109 109 109 109 110 110 110 109 108 107 106 105 104 102 101 101 101 100 99 98 96 95 93 91 90 89 88 87 87 86 86 85 82 79 77 76 75 75 73 72 70 69 67 66 64 64 63 63 63 62 62 62 61 61 61 61 61 60 60 61 61 61 61 61 61 61 62 63 65 67
135 134 132 128 124 121 120 118 116 114 113 113 112 112 112 112 111 111 111 111 111 111 111 110 110 109 107 105 103 103 103 102 101 101 99 98 96 95 94 93 92 91 89 88 87 85 83 80 78 77 77 76 76 74 72 71 70 68 67 65 64 63 62 62 62 61 61 61 61 61 61 61 61 61 62 62 62 62 63 63 62 62 63 64 66
136 134 131 127 124 121 120 118 117 116 115 115 115 115 114 113 112 112 112 113 113 113 112 112 111 110 108 106 105 104 103 102 102 102 101 99 99 98 97 97 95 93 91 90 88 86 83 81 79 77 77 76 75 74 73 71 71 69 68 67 66 64 62 61 60 60 60 60 60 60 61 61 62 62 63 63 64 64 64 65 64 64 65 65 66
136 134 131 128 125 123 121 120 119 119 118 118 117 116 114 114 113 113 114 115 115 115 114 114 113 111 109 107 106 105 104 104 104 104 103 102 102 101 99 98 96 95 93 91 89 87 84 82 80 78 77 76 74 73 71 70 69 68 67 66 66 65 64 62 60 59 59 59 59 59 59 60 61 62 63 64 65 65 66 67 67 67 67 67 67
137 134 132 129 126 125 124 123 122 121 120 119 117 116 115 115 115 116 116 117 117 117 116 115 113 111 109 107 107 106 106 106 106 106 106 105 104 103 101 100 98 96 94 92 89 86 83 82 81 79 77 76 73 71 69 67 66 64 64 63 62 61 60 60 59 59 58 57 56 57 57 58 59 60 61 63 65 66 67 68 69 69 69 69 69
137 135 133 130 127 126 126 125 123 122 120 119 118 117 117 117 117 118 118 119 119 118 117 116 113 110 109 107 106 105 104 105 106 108 108 107 106 105 104 103 101 98 94 92 88 85 84 82 80 79 77 75 73 70 67 65 63 62 62 60 58 56 54 53 53 54 55 56 55 54 54 55 55 57 59 61 63 65 67 69 70 71 72 72 72
138 136 133 131 129 129 128 126 124 123 121 120 119 118 118 118 118 119 119 119 119 119 118 117 115 113 111 110 107 106 104 104 106 107 108 108 108 108 107 105 103 99 95 92 88 85 83 81 78 76 74 72 71 67 64 63 61 59 58 57 54 52 49 46 45 45 47 50 52 53 53 53 53 54 55 58 61 63 66 68 69 71 72 74 75
139 137 134 133 131 130 128 127 125 123 123 122 120 119 119 119 118 118 118 118 118 118 118 117 116 115 114 113 111 109 108 107 107 107 108 109 109 109 108 107 104 100 97 93 89 85 81 77 75 72 70 68 65 62 60 59 57 54 52 50 48 46 43 41 40 40 41 43 45 47 50 51 52 52 53 54 57 60 64 67 69 70 72 73 74
140 138 135 134 133 131 129 127 126 125 124 123 121 120 119 119 118 118 117 117 117 116 116 115 114 114 113 112 111 110 110 110 110 110 111 110 110 109 108 106 103 99 95 92 88 83 78 74 71 68 65 62 58 56 54 52 50 46 42 40 39 37 35 34 37 38 40 41 42 43 45 47 50 51 51 52 54 57 60 64 67 70 72 73 73
142 139 137 136 135 132 130 128 127 126 125 124 122 121 120 119 118 117 116 115 114 113 113 112 112 111 111 110 110 109 109 110 110 110 109 108 107 106 105 103 101 97 95 91 85 80 75 71 66 60 57 54 49 45 43 42 41 38 34 31 29 28 27 28 32 36 39 42 44 45 45 46 47 49 50 50 51 53 55 59 63 67 70 72 73
145 141 139 137 136 134 132 130 129 128 127 125 124 123 122 121 120 119 118 116 115 114 114 114 113 112 112 111 110 109 108 108 109 108 107 105 104 102 99 99 96 95 92 85 80 78 72 68 65 58 51 47 42 36 33 33 31 28 25 22 20 21 22 24 28 33 36 41 44 45 46 46 45 45 47 48 48 48 50 52 57 62 66 70 73
148 144 141 139 137 135 133 132 131 130 129 128 127 125 124 123 122 121 120 119 119 119 119 119 119 117 115 113 111 109 108 108 109 110 109 107 104 100 96 93 89 86 82 75 70 65 60 59 61 52 42 36 30 26 22 18 14 12 11 13 14 16 19 22 26 30 34 38 41 43 44 45 44 43 43 44 45 45 44 45 48 53 59 64 68
151 147 144 141 139 137 136 135 134 133 133 131 129 128 126 125 125 124 124 123 123 123 122 121 120 118 115 112 109 106 104 104 104 106 110 110 107 103 96 92 88 81 73 65 55 45 38 38 39 33 25 20 17 12 7 1 354 349 350 356 2 8 15 21 25 30 33 35 37 39 41 41 41 41 40 39 40 41 40 39 39 41 47 52 58
153 150 146 143 142 141 140 139 138 137 136 133 131 130 129 127 127 126 126 125 125 124 123 121 118 115 112 108 106 103 100 98 96 97 103 109 111 113 108 101 84 65 54 46 36 25 15 13 17 15 6 359 356 352 350 348 343 336 335 339 345 351 1 10 18 28 32 29 29 32 34 36 37 37 36 35 35 35 34 33 33 33 35 38 43
156 152 149 147 146 146 145 143 142 140 138 135 134 133 132 131 130 130 129 128 127 125 122 120 118 115 112 107 102 98 92 85 79 77 75 80 96 138 181 198 359 23 47 53 36 19 11 9 6 1 352 347 348 348 349 353 352 346 341 339 338 340 346 354 359 7 17 18 18 19 18 21 27 30 31 30 30 32 31 28 26 25 24 25 28
158 156 153 152 152 151 149 146 144 141 140 139 139 138 138 138 136 135 133 132 131 130 130 130 130 128 125 118 107 97 87 75 64 54 42 32 14 338 288 268 282 326 88 74 50 38 35 30 17 2 354 353 355 356 355 358 360 357 353 347 342 338 339 344 343 342 350 358 3 3 359 359 4 10 15 18 19 21 23 22 21 18 15 13 10
162 160 158 157 156 154 151 148 146 145 145 145 145 145 144 142 141 139 137 137 139 140 144 149 151 150 145 136 123 105 81 60 36 12 5 3 350 338 327 312 274 183 147 76 37 39 41 42 37 18 4 2 2 0 356 354 356 357 354 349 344 336 332 331 330 328 330 335 339 341 344 348 351 351 354 358 0 3 5 7 9 9 7 4 359
166 164 163 161 159 156 153 152 151 151 151 150 150 149 147 146 144 141 141 145 152 159 165 167 167 165 162 155 155 165 184 359 357 356 7 3 337 322 314 305 217 196 208 294 339 4 16 20 19 10 1 353 350 350 348 344 344 346 348 347 343 337 330 325 323 320 319 323 329 331 335 343 348 347 344 343 345 348 349 350 353 355 355 354 352
170 169 167 164 161 159 158 157 157 157 156 155 154 154 154 154 153 153 158 165 172 179 181 181 183 194 207 213 210 211 224 251 338 18 20 7 323 294 285 277 262 251 260 280 299 318 337 348 351 351 347 343 340 338 338 337 337 339 342 344 343 341 339 335 331 327 325 326 329 331 334 339 342 343 340 338 339 341 341 342 344 346 347 347 346
175 174 170 166 164 163 163 163 163 163 162 162 163 164 164 165 166 170 177 182 186 186 187 196 213 228 238 247 262 269 281 312 337 356 360 341 305 274 267 269 270 268 273 279 288 298 310 320 328 332 333 331 329 327 327 329 331 334 336 338 338 337 338 340 338 334 331 329 329 331 332 334 334 334 333 334 335 337 339 340 342 344 345 344 343
179 177 173 170 168 168 168 169 169 170 171 173 175 173 172 175 181 187 193 199 201 196 191 207 229 246 257 269 281 286 291 303 306 313 329 321 300 279 263 261 264 265 270 277 282 290 298 305 311 317 320 320 319 319 319 321 324 325 326 326 327 327 327 328 329 328 325 322 323 325 326 326 326 325 326 327 329 331 334 336 338 338 340 340 338
183 180 176 174 173 173 174 175 176 177 180 183 183 180 182 191 200 208 214 218 220 215 209 219 238 254 261 268 278 281 278 274 278 286 288 283 283 281 271 262 261 262 265 272 278 286 293 298 303 310 313 315 316 316 316 316 316 315 315 315 316 318 318 319 319 319 317 315 316 319 321 322 322 322 322 323 323 324 326 328 329 329 328 328 326
187 184 182 180 179 179 180 182 183 186 189 191 189 189 195 202 208 216 223 224 224 224 223 229 246 263 270 278 285 280 270 265 262 261 260 253 259 274 280 275 269 267 267 270 276 282 289 294 299 305 310 313 313 314 314 313 311 308 306 305 307 311 314 316 316 314 312 307 306 312 316 316 317 317 318 319 320 320 321 322 322 322 322 321 320
191 189 188 187 186 186 187 189 191 194 197 197 197 202 205 203 203 211 220 224 229 235 239 246 260 273 278 284 287 276 264 260 254 248 248 250 253 263 275 278 274 272 273 276 280 283 286 289 295 300 305 308 310 311 311 311 310 308 305 300 299 302 306 309 310 311 310 303 296 299 306 309 308 309 312 314 315 315 316 316 317 317 317 317 316
196 195 195 195 193 193 194 197 199 202 204 205 206 211 214 212 210 213 219 230 243 253 257 260 264 270 275 277 278 274 265 259 259 253 249 253 260 264 270 274 275 277 278 280 283 284 284 285 289 294 297 300 303 305 308 309 308 308 305 302 298 297 297 299 300 301 302 300 296 295 298 301 300 301 305 307 308 309 311 313 314 316 317 318 318
201 200 201 201 200 201 202 205 207 209 212 212 213 218 224 227 228 232 235 242 250 257 260 261 260 265 271 272 272 273 270 265 267 268 263 261 267 272 275 279 282 284 285 285 284 283 282 282 285 288 291 294 296 300 303 305 305 305 304 303 301 299 296 295 294 293 293 294 294 292 292 292 291 292 295 298 300 303 305 307 309 311 314 316 317
205 205 206 207 207 208 210 212 214 217 219 219 221 226 233 238 245 251 250 246 247 252 256 258 259 263 268 270 268 268 269 269 273 277 277 272 268 269 273 279 284 287 288 288 287 284 281 281 283 285 288 290 291 294 297 300 301 301 302 302 301 299 298 295 294 293 291 290 290 289 289 288 288 288 290 293 296 298 300 302 304 305 306 308 310
209 210 211 212 213 214 216 219 221 223 225 226 229 233 238 244 251 257 255 248 246 250 255 257 260 264 267 267 265 263 263 265 267 270 273 271 268 265 266 269 273 278 282 284 284 283 281 280 281 283 286 287 288 289 291 293 295 297 299 299 298 296 295 293 292 291 291 291 289 287 286 285 286 286 287 289 291 293 296 299 300 301 302 302 303
210 212 213 215 217 219 222 224 226 228 229 231 234 237 240 245 250 254 253 250 249 253 257 259 261 263 264 264 262 259 259 260 260 259 260 261 263 265 265 264 261 261 265 270 273 276 277 277 279 281 283 284 285 286 287 289 291 293 295 297 296 294 292 291 289 289 290 292 291 289 286 284 283 284 285 286 287 290 293 296 296 296 297 297 297
211 213 215 218 221 224 226 228 230 232 233 234 237 239 242 245 248 250 251 251 252 255 259 260 262 262 262 262 262 260 258 258 260 260 258 257 259 262 264 264 260 258 260 265 269 273 275 276 277 279 280 281 282 284 285 288 290 293 294 296 296 295 294 292 289 288 290 292 291 290 288 286 284 283 284 285 286 287 289 291 291 292 292 292 292
214 216 218 221 223 225 228 230 232 234 236 237 239 241 244 246 248 249 251 254 256 259 260 261 263 262 261 262 262 263 262 262 264 267 269 269 269 269 268 268 266 266 268 272 276 280 280 280 280 279 279 281 283 286 288 289 291 293 294 295 297 298 297 294 290 287 288 289 288 288 287 286 285 284 284 285 286 286 287 287 289 290 290 289 289
219 221 223 225 226 227 229 232 234 237 239 241 243 245 248 250 252 253 254 256 258 259 260 261 263 263 262 263 264 265 266 266 267 270 273 275 276 276 275 275 275 276 278 279 282 284 285 286 285 285 285 288 290 290 291 291 292 293 292 292 295 297 298 295 289 285 285 286 287 288 287 286 285 284 284 284 285 286 287 288 289 290 290 291 292
223 224 226 227 228 229 230 233 236 239 242 245 247 250 252 254 256 256 256 257 258 260 261 263 264 265 265 266 266 267 267 267 268 269 272 274 276 277 277 278 278 279 280 281 282 283 285 287 287 288 289 290 290 289 289 289 290 290 289 289 291 293 294 294 290 286 286 287 288 290 290 289 288 287 286 285 285 286 287 288 289 291 292 293 294
224 226 227 229 231 232 234 236 237 239 241 244 247 249 252 254 256 257 258 258 260 261 263 264 265 267 267 267 267 267 267 267 268 268 270 272 275 276 277 277 278 278 279 280 281 281 282 284 285 286 287 287 287 287 287 287 288 287 287 287 289 290 291 291 289 287 286 286 287 289 289 289 288 288 288 288 288 287 288 289 290 291 292 293 294
225 226 227 229 231 233 236 238 239 241 242 244 246 249 251 254 255 257 258 260 262 263 264 265 266 267 268 268 268 269 269 268 269 270 271 272 273 274 275 276 277 277 278 279 279 279 281 283 284 286 287 288 288 289 290 290 290 290 289 289 290 290 290 290 289 287 286 286 286 287 287 287 288 289 290 291 290 289 289 289 290 291 292 293 294
Height
10941 10941 10941 10940 10940 10940 10939 10938 10938 10937 10937 10937 10936 10936 10935 10935 10935 10935 10935 10935 10935 10935 10935 10934 10934 10933 10933 10932 10931 10930 10929 10928 10927 10926 10926 10925 10925 10924 10924 10923 10921 10920 10919 10918 10917 10916 10915 10914 10912 10911 10909 10907 10906 10904 10902 10901 10899 10897 10896 10895 10894 10894 10894 10893 10892 10892 10891 10890 10890 10889 10888 10887 10886 10885 10885 10884 10883 10882 10881 10880 10879 10877 10875 10874 10873
10940 10940 10940 10940 10939 10939 10939 10938 10938 10937 10937 10937 10936 10936 10936 10937 10937 10937 10937 10937 10937 10937 10936 10936 10936 10935 10935 10934 10934 10933 10932 10931 10931 10930 10929 10929 10928 10928 10927 10926 10924 10923 10922 10921 10919 10918 10917 10916 10914 10913 10911 10909 10908 10906 10904 10903 10901 10900 10899 10898 10897 10897 10896 10895 10894 10894 10893 10893 10892 10891 10890 10889 10888 10887 10886 10886 10885 10884 10883 10881 10879 10878 10875 10873 10872
10939 10939 10939 10939 10939 10939 10938 10938 10937 10937 10937 10937 10937 10937 10937 10938 10938 10938 10939 10939 10939 10939 10938 10938 10938 10938 10937 10937 10937 10936 10936 10935 10934 10933 10933 10933 10932 10932 10931 10929 10928 10926 10925 10924 10923 10921 10920 10919 10917 10915 10914 10912 10911 10909 10907 10905 10904 10903 10902 10901 10900 10899 10899 10898 10897 10896 10896 10895 10894 10893 10892 10891 10890 10889 10888 10888 10887 10885 10884 10882 10879 10877 10875 10872 10870
10939 10939 10939 10939 10939 10938 10938 10937 10937 10937 10937 10937 10938 10938 10939 10939 10940 10940 10941 10941 10941 10941 10941 10941 10940 10940 10940 10940 10940 10939 10939 10938 10937 10937 10936 10936 10936 10935 10934 10933 10931 10930 10928 10927 10926 10925 10923 10922 10920 10918 10917 10915 10913 10912 10910 10908 10907 10906 10905 10905 10904 10903 10901 10901 10900 10899 10898 10897 10896 10896 10894 10893 10892 10891 10890 10889 10887 10886 10884 10881 10879 10876 10873 10871 10867
10939 10939 10939 10939 10938 10938 10937 10937 10937 10938 10938 10938 10939 10939 10940 10941 10941 10942 10943 10943 10943 10943 10943 10943 10943 10943 10943 10943 10943 10942 10942 10941 10940 10940 10940 10940 10939 10938 10937 10936 10934 10933 10932 10931 10930 10929 10927 10925 10924 10922 10920 10918 10917 10915 10913 10911 10910 10910 10909 10908 10907 10906 10905 10904 10903 10902 10901 10900 10899 10898 10897 10896 10894 10893 10891 10890 10888 10886 10884 10881 10878 10875 10871 10867 10863
10938 10939 10939 10938 10938 10938 10937 10937 10938 10939 10939 10939 10940 10941 10942 10943 10944 10944 10945 10945 10945 10946 10946 10946 10946 10946 10946 10946 10945 10945 10944 10944 10944 10943 10943 10943 10942 10941 10940 10939 10938 10937 10936 10935 10934 10933 10931 10929 10928 10926 10924 10922 10920 10918 10917 10915 10914 10913 10912 10911 10910 10909 10908 10907 10906 10905 10904 10903 10902 10901 10899 10898 10896 10895 10893 10892 10890 10887 10885 10882 10878 10874 10869 10864 10858
10938 10938 10938 10938 10938 10938 10938 10938 10939 10940 10940 10941 10942 10943 10944 10945 10946 10946 10947 10947 10947 10948 10948 10949 10949 10949 10949 10949 10948 10948 10948 10947 10947 10947 10946 10946 10945 10944 10943 10942 10941 10940 10939 10939 10938 10938 10936 10934 10932 10930 10928 10926 10924 10922 10920 10918 10917 10917 10916 10915 10913 10912 10911 10910 10909 10908 10907 10906 10905 10903 10902 10900 10899 10897 10895 10893 10891 10889 10886 10883 10879 10874 10868 10862 10855
10938 10938 10938 10938 10939 10938 10939 10939 10940 10941 10942 10943 10944 10945 10946 10947 10947 10948 10949 10949 10950 10950 10951 10951 10952 10952 10952 10952 10951 10951 10951 10950 10950 10950 10949 10949 10948 10947 10946 10945 10944 10943 10942 10942 10943 10942 10940 10938 10937 10935 10932 10930 10928 10926 10924 10922 10921 10920 10919 10918 10916 10915 10914 10913 10911 10911 10910 10909 10907 10906 10905 10903 10901 10899 10897 10895 10893 10891 10888 10884 10879 10874 10868 10861 10854
10937 10937 10938 10939 10939 10940 10940 10941 10941 10942 10944 10945 10946 10947 10947 10948 10949 10950 10951 10951 10952 10953 10953 10954 10954 10954 10954 10954 10954 10954 10954 10954 10953 10953 10952 10952 10951 10950 10949 10948 10947 10946 10945 10946 10947 10946 10943 10942 10941 10939 10937 10935 10933 10930 10928 10927 10925 10924 10923 10921 10920 10919 10918 10916 10915 10914 10913 10911 10910 10908 10907 10905 10903 10901 10899 10896 10895 10892 10889 10885 10880 10875 10869 10863 10855
10937 10938 10939 10940 10941 10941 10942 10943 10943 10944 10946 10947 10948 10949 10949 10950 10951 10952 10953 10954 10954 10955 10956 10956 10957 10957 10957 10957 10957 10957 10957 10957 10956 10956 10955 10955 10954 10953 10952 10951 10950 10949 10948 10949 10950 10948 10946 10944 10944 10944 10942 10939 10937 10934 10932 10931 10930 10928 10926 10925 10924 10922 10921 10919 10918 10917 10916 10914 10912 10911 10909 10908 10906 10903 10900 10898 10897 10894 10890 10887 10883 10878 10872 10866 10859
10938 10939 10940 10942 10943 10944 10945 10946 10946 10947 10948 10949 10950 10950 10951 10952 10952 10954 10955 10956 10957 10958 10958 10958 10959 10959 10959 10959 10959 10959 10960 10960 10959 10959 10958 10957 10956 10955 10954 10954 10953 10953 10952 10951 10951 10950 10948 10947 10947 10949 10946 10943 10940 10938 10937 10936 10934 10933 10930 10929 10927 10925 10924 10922 10921 10920 10919 10916 10914 10913 10912 10910 10908 10906 10903 10901 10900 10897 10893 10890 10886 10882 10877 10871 10864
10940 10940 10942 10944 10945 10946 10948 10949 10949 10950 10950 10951 10952 10952 10953 10953 10954 10956 10957 10958 10959 10960 10960 10961 10961 10961 10962 10962 10962 10962 10962 10962 10962 10962 10961 10960 10959 10958 10957 10957 10956 10956 10955 10955 10954 10953 10952 10951 10951 10951 10949 10946 10944 10942 10941 10940 10938 10937 10934 10933 10931 10929 10927 10926 10925 10924 10921 10919 10917 10916 10915 10913 10911 10908 10906 10905 10903 10900 10896 10893 10890 10887 10882 10877 10871
10942 10943 10944 10946 10948 10949 10950 10952 10952 10952 10953 10953 10954 10954 10955 10956 10957 10958 10959 10960 10961 10962 10963 10963 10964 10964 10964 10964 10964 10965 10965 10965 10965 10965 10964 10963 10962 10962 10961 10960 10960 10959 10959 10958 10958 10956 10955 10955 10954 10953 10951 10949 10948 10946 10945 10944 10942 10940 10938 10936 10934 10933 10931 10930 10929 10927 10924 10923 10921 10919 10918 10916 10914 10912 10910 10908 10906 10903 10900 10897 10894 10891 10888 10883 10879
10944 10946 10947 10948 10950 10952 10953 10954 10955 10955 10955 10956 10957 10957 10958 10958 10959 10960 10962 10963 10964 10965 10966 10966 10967 10967 10967 10967 10967 10968 10968 10968 10968 10968 10967 10966 10965 10965 10964 10963 10963 10963 10963 10962 10961 10960 10959 10958 10957 10956 10955 10953 10952 10951 10949 10948 10947 10945 10942 10941 10939 10937 10935 10934 10932 10930 10929 10927 10925 10923 10921 10920 10918 10916 10914 10912 10910 10907 10904 10901 10899 10897 10893 10889 10886
10947 10949 10950 10951 10952 10954 10955 10957 10957 10958 10958 10959 10960 10960 10961 10961 10962 10963 10964 10965 10967 10968 10968 10969 10969 10970 10970 10970 10970 10970 10971 10970 10970 10970 10970 10969 10968 10968 10967 10967 10967 10967 10967 10965 10964 10963 10963 10962 10960 10959 10958 10956 10956 10955 10954 10952 10951 10949 10947 10945 10944 10942 10940 10939 10937 10935 10933 10932 10930 10928 10926 10925 10923 10921 10918 10916 10914 10911 10908 10905 10904 10902 10899 10896 10893
10950 10952 10953 10954 10955 10956 10958 10959 10960 10960 10961 10961 10962 10963 10964 10964 10965 10966 10967 10968 10970 10970 10971 10972 10972 10973 10973 10973 10973 10973 10973 10973 10973 10973 10973 10972 10972 10971 10970 10970 10971 10971 10970 10968 10967 10967 10966 10965 10964 10962 10961 10960 10959 10959 10958 10956 10954 10953 10951 10950 10949 10947 10945 10943 10941 10940 10938 10937 10935 10934 10931 10930 10928 10926 10923 10920 10918 10915 10912 10910 10909 10907 10904 10902 10899
10953 10955 10956 10957 10958 10959 10960 10961 10962 10963 10963 10964 10965 10966 10967 10967 10968 10969 10970 10971 10972 10973 10974 10974 10975 10975 10975 10976 10976 10976 10976 10976 10976 10976 10976 10975 10975 10974 10974 10974 10975 10974 10973 10972 10971 10970 10969 10968 10967 10966 10964 10964 10963 10963 10961 10959 10958 10956 10956 10955 10953 10952 10950 10948 10946 10945 10943 10942 10940 10939 10936 10935 10933 10931 10928 10925 10923 10920 10917 10915 10914 10912 10909 10907 10905
10956 10957 10959 10960 10961 10962 10963 10964 10964 10965 10966 10967 10968 10969 10969 10970 10971 10972 10973 10974 10976 10976 10977 10977 10978 10978 10978 10978 10978 10979 10979 10978 10978 10979 10978 10978 10978 10977 10977 10978 10978 10977 10976 10975 10974 10973 10972 10971 10970 10969 10968 10967 10967 10966 10965 10963 10962 10961 10960 10960 10958 10956 10955 10953 10951 10949 10948 10947 10945 10943 10941 10940 10938 10936 10933 10931 10929 10926 10922 10920 10919 10917 10915 10912 10910
10958 10960 10962 10963 10963 10964 10965 10966 10967 10968 10969 10970 10971 10971 10972 10973 10974 10975 10976 10977 10979 10979 10980 10980 10980 10980 10981 10981 10981 10982 10981 10981 10981 10981 10981 10981 10981 10981 10980 10980 10980 10980 10979 10978 10978 10976 10975 10974 10973 10973 10972 10971 10970 10969 10968 10967 10966 10965 10965 10963 10962 10961 10959 10958 10956 10954 10953 10951 10950 10948 10946 10944 10943 10941 10938 10936 10934 10931 10928 10926 10925 10923 10921 10919 10917
10960 10962 10964 10965 10966 10967 10968 10969 10970 10971 10972 10972 10973 10974 10975 10976 10977 10978 10979 10980 10981 10982 10982 10982 10983 10983 10983 10983 10984 10984 10984 10984 10984 10984 10984 10984 10984 10983 10983 10983 10983 10982 10982 10981 10981 10980 10978 10977 10976 10976 10975 10974 10973 10972 10971 10971 10970 10969 10968 10967 10966 10965 10964 10962 10961 10959 10957 10956 10954 10952 10951 10949 10948 10945 10943 10941 10939 10937 10934 10932 10931 10929 10928 10926 10924
10963 10965 10966 10967 10968 10969 10970 10972 10973 10973 10974 10975 10976 10977 10978 10979 10980 10981 10982 10983 10984 10985 10985 10985 10985 10986 10986 10987 10987 10987 10987 10987 10987 10987 10987 10987 10986 10986 10986 10986 10986 10985 10985 10984 10983 10982 10981 10980 10980 10979 10978 10977 10976 10975 10975 10975 10974 10973 10972 10971 10970 10969 10967 10966 10965 10963 10962 10960 10959 10957 10955 10954 10952 10950 10948 10946 10944 10942 10940 10938 10936 10935 10934 10932 10931
10964 10966 10968 10969 10970 10971 10973 10974 10975 10976 10977 10978 10979 10980 10981 10982 10983 10984 10985 10986 10987 10987 10988 10988 10988 10988 10989 10989 10989 10989 10989 10989 10989 10989 10989 10989 10989 10988 10988 10988 10988 10988 10987 10987 10986 10985 10984 10983 10983 10982 10981 10980 10979 10979 10978 10978 10977 10976 10975 10974 10973 10972 10971 10969 10968 10967 10966 10964 10963 10961 10960 10958 10957 10955 10953 10951 10949 10947 10945 10943 10942 10940 10939 10938 10936
10966 10968 10970 10971 10973 10974 10975 10976 10977 10978 10979 10981 10982 10983 10984 10984 10985 10986 10987 10988 10989 10989 10990 10990 10990 10991 10991 10992 10992 10992 10991 10991 10991 10992 10992 10991 10991 10991 10990 10990 10990 10989 10989 10989 10988 10987 10986 10986 10986 10985 10984 10983 10982 10982 10981 10981 10980 10979 10978 10977 10976 10975 10974 10972 10971 10970 10969 10967 10966 10965 10964 10962 10961 10959 10957 10956 10954 10952 10950 10948 10947 10945 10944 10943 10942
10968 10970 10972 10974 10975 10976 10977 10979 10980 10981 10982 10983 10984 10985 10986 10987 10987 10988 10989 10989 10990 10991 10991 10992 10992 10993 10993 10994 10994 10994 10993 10993 10994 10994 10994 10994 10993 10993 10992 10992 10992 10991 10991 10991 10990 10989 10989 10988 10988 10988 10987 10986 10986 10985 10984 10983 10982 10982 10981 10980 10979 10977 10976 10975 10974 10973 10971 10970 10969 10968 10967 10966 10964 10963 10961 10960 10958 10956 10954 10953 10951 10950 10949 10948 10946
10970 10973 10975 10976 10977 10978 10980 10981 10982 10984 10985 10986 10987 10988 10989 10989 10990 10990 10991 10991 10992 10992 10993 10993 10994 10995 10995 10995 10995 10995 10995 10995 10996 10996 10996 10995 10995 10995 10994 10994 10994 10993 10993 10992 10992 10991 10991 10991 10990 10990 10989 10989 10988 10988 10987 10986 10985 10984 10983 10982 10981 10980 10979 10977 10976 10975 10974 10972 10971 10970 10969 10968 10967 10966 10964 10963 10962 10960 10958 10957 10955 10954 10953 10952 10951
10973 10975 10977 10978 10980 10981 10982 10983 10985 10986 10987 10988 10990 10990 10991 10992 10992 10993 10993 10994 10994 10994 10995 10995 10996 10996 10996 10997 10997 10997 10997 10997 10997 10997 10997 10997 10997 10996 10996 10996 10995 10995 10994 10994 10993 10993 10992 10992 10992 10992 10991 10991 10990 10989 10988 10987 10987 10986 10985 10984 10983 10982 10981 10980 10978 10977 10976 10975 10974 10973 10972 10971 10969 10968 10967 10966 10965 10963 10962 10960 10959 10957 10956 10955 10954
10975 10977 10979 10980 10982 10983 10984 10985 10986 10988 10989 10990 10991 10992 10993 10994 10995 10995 10995 10996 10996 10996 10996 10997 10997 10998 10998 10998 10998 10999 10999 10999 10999 10999 10999 10998 10998 10998 10998 10997 10997 10996 10996 10995 10995 10994 10994 10994 10994 10994 10993 10992 10991 10991 10990 10989 10988 10988 10987 10986 10985 10984 10983 10982 10980 10979 10978 10977 10976 10975 10974 10973 10972 10971 10970 10969 10967 10966 10965 10963 10962 10961 10960 10958 10957
10977 10979 10980 10982 10983 10985 10986 10987 10988 10989 10990 10991 10992 10994 10995 10995 10996 10997 10997 10997 10997 10998 10998 10998 10999 10999 10999 10999 11000 11000 11000 11001 11001 11001 11001 11000 11000 11000 10999 10999 10998 10998 10997 10997 10996 10995 10995 10995 10995 10994 10994 10993 10993 10992 10991 10991 10990 10989 10988 10987 10987 10986 10985 10984 10982 10981 10980 10979 10978 10977 10976 10975 10974 10973 10972 10971 10970 10969 10967 10966 10965 10964 10963 10962 10960
10979 10980 10982 10983 10985 10986 10987 10988 10989 10990 10991 10993 10994 10995 10996 10997 10997 10998 10998 10999 10999 10999 11000 11000 11000 11001 11001 11001 11002 11002 11002 11002 11002 11002 11002 11002 11002 11001 11001 11000 11000 10999 10998 10998 10997 10997 10996 10996 10995 10994 10994 10994 10994 10993 10992 10991 10991 10990 10989 10988 10988 10987 10986 10985 10984 10983 10982 10981 10980 10979 10977 10976 10975 10974 10973 10972 10971 10971 10970 10969 10967 10966 10965 10964 10963
10980 10982 10983 10985 10986 10987 10988 10989 10990 10991 10993 10994 10995 10996 10997 10998 10998 10999 10999 11000 11001 11001 11001 11002 11002 11003 11003 11003 11003 11003 11003 11003 11003 11003 11003 11003 11003 11002 11002 11001 11001 11000 11000 10999 10998 10998 10997 10996 10996 10995 10995 10995 10994 10993 10992 10992 10991 10990 10989 10988 10988 10987 10987 10986 10985 10984 10983 10982 10981 10980 10979 10978 10977 10976 10975 10974 10973 10972 10971 10970 10969 10968 10967 10966 10965
10982 10983 10985 10986 10987 10988 10989 10990 10991 10993 10994 10995 10996 10997 10998 10999 10999 11000 11000 11001 11002 11002 11003 11003 11003 11003 11003 11003 11003 11003 11003 11003 11003 11003 11003 11003 11003 11003 11002 11002 11001 11001 11000 11000 10999 10999 10998 10997 10997 10996 10996 10995 10994 10993 10992 10991 10991 10990 10989 10989 10988 10988 10987 10987 10986 10985 10984 10983 10982 10981 10980 10979 10978 10977 10976 10975 10974 10973 10972 10971 10970 10969 10969 10968 10967
10983 10984 10985 10986 10987 10988 10990 10991 10993 10994 10995 10996 10997 10998 10999 10999 11000 11000 11001 11002 11002 11003 11003 11003 11003 11003 11003 11003 11003 11003 11003 11003 11003 11003 11003 11003 11003 11003 11002 11002 11002 11001 11001 11000 11000 10999 10998 10998 10997 10996 10996 10995 10994 10993 10992 10991 10991 10990 10989 10989 10989 10988 10988 10987 10987 10986 10985 10984 10983 10982 10981 10980 10979 10978 10977 10976 10975 10973 10972 10971 10971 10970 10969 10969 10968
10983 10984 10985 10986 10988 10989 10991 10992 10994 10995 10996 10996 10997 10998 10999 11000 11000 11001 11001 11002 11003 11003 11003 11003 11003 11003 11003 11003 11003 11003 11003 11003 11003 11003 11004 11004 11004 11004 11003 11002 11002 11001 11001 11000 11000 10999 10999 10998 10997 10997 10996 10995 10994 10993 10992 10992 10991 10990 10990 10989 10989 10988 10988 10987 10987 10986 10985 10985 10984 10983 10982 10981 10979 10978 10977 10976 10975 10974 10973 10972 10971 10971 10970 10969 10969
10984 10985 10986 10987 10989 10990 10992 10993 10994 10995 10996 10997 10997 10998 10999 10999 11000 11001 11001 11002 11002 11002 11002 11003 11003 11004 11004 11004 11003 11003 11003 11003 11003 11004 11004 11004 11005 11005 11004 11003 11002 11001 11001 11000 11000 10999 10998 10998 10997 10997 10996 10995 10994 10994 10993 10992 10991 10991 10990 10990 10989 10989 10988 10988 10987 10986 10986 10985 10984 10983 10981 10980 10979 10978 10977 10976 10975 10974 10973 10972 10971 10971 10970 10969 10969
10984 10985 10986 10988 10989 10991 10992 10993 10994 10995 10996 10996 10997 10998 10998 10998 10998 10999 11000 11001 11001 11001 11002 11002 11003 11004 11004 11003 11003 11002 11002 11003 11003 11004 11004 11004 11005 11006 11005 11004 11003 11002 11001 11000 10999 10999 10998 10997 10997 10996 10996 10995 10994 10994 10993 10992 10991 10991 10990 10989 10989 10988 10988 10988 10987 10986 10985 10984 10983 10982 10981 10979 10978 10977 10976 10976 10975 10974 10973 10972 10971 10970 10969 10968 10968
10984 10985 10986 10988 10989 10990 10991 10993 10993 10994 10995 10996 10996 10996 10996 10996 10996 10996 10996 10996 10996 10998 11000 11001 11002 11002 11003 11003 11003 11003 11002 11003 11003 11003 11004 11005 11005 11005 11005 11004 11003 11002 11001 11000 10999 10998 10997 10997 10996 10996 10995 10995 10994 10993 10992 10992 10991 10990 10989 10989 10988 10988 10987 10987 10986 10986 10984 10983 10982 10981 10980 10978 10977 10976 10975 10974 10974 10973 10972 10971 10970 10969 10968 10967 10967
10984 10985 10986 10988 10989 10990 10991 10992 10993 10993 10994 10994 10994 10995 10995 10996 10996 10996 10997 10996 10996 10997 10998 11000 11000 11001 11002 11003 11003 11002 11002 11002 11002 11002 11003 11004 11005 11005 11004 11003 11002 11001 11000 10999 10998 10998 10997 10996 10995 10995 10994 10994 10993 10992 10992 10991 10990 10989 10988 10988 10987 10986 10986 10986 10985 10984 10983 10982 10981 10980 10979 10978 10977 10975 10974 10973 10972 10972 10971 10970 10969 10968 10968 10967 10966
10983 10985 10986 10987 10988 10989 10990 10991 10992 10992 10993 10993 10993 10994 10995 10996 10996 10997 10997 10998 10998 10999 10999 10999 10999 11000 11001 11001 11002 11002 11002 11001 11001 11001 11001 11001 11003 11003 11002 11002 11001 11000 10999 10998 10997 10997 10996 10995 10994 10993 10993 10992 10992 10991 10991 10990 10990 10989 10988 10986 10986 10985 10985 10984 10983 10982 10982 10980 10979 10979 10978 10977 10975 10974 10973 10972 10971 10970 10970 10969 10968 10967 10966 10966 10965
10983 10984 10985 10986 10987 10988 10989 10989 10990 10991 10991 10991 10992 10994 10994 10994 10995 10996 10996 10997 10997 10998 10999 10999 10999 10999 10999 11000 11000 11001 11000 11000 10999 10998 10998 10998 10998 11000 11001 11001 11000 10999 10998 10997 10996 10995 10994 10993 10993 10992 10991 10991 10990 10990 10989 10989 10988 10987 10986 10985 10984 10983 10983 10982 10981 10980 10980 10979 10978 10977 10976 10975 10974 10973 10972 10971 10970 10969 10968 10967 10966 10965 10964 10964 10963
10982 10983 10984 10985 10986 10987 10987 10988 10989 10989 10989 10990 10991 10992 10992 10993 10994 10994 10995 10996 10997 10997 10998 10998 10998 10998 10998 10998 10998 10998 10998 10998 10996 10995 10995 10995 10995 10997 10999 10999 10998 10997 10996 10995 10994 10993 10992 10992 10991 10990 10989 10989 10988 10987 10987 10986 10986 10985 10984 10983 10982 10981 10980 10979 10979 10978 10978 10977 10976 10975 10975 10974 10972 10971 10970 10969 10968 10967 10966 10965 10964 10963 10962 10962 10960
10980 10982 10982 10983 10984 10985 10986 10986 10987 10987 10987 10988 10989 10990 10990 10991 10992 10993 10994 10995 10995 10996 10996 10996 10996 10996 10996 10996 10996 10996 10996 10996 10995 10994 10993 10993 10993 10995 10997 10997 10996 10995 10994 10993 10992 10991 10990 10989 10989 10988 10987 10986 10986 10985 10984 10983 10983 10982 10981 10980 10979 10979 10978 10977 10976 10976 10975 10974 10973 10972 10972 10971 10970 10969 10968 10967 10966 10965 10964 10963 10962 10961 10960 10959 10958
10978 10979 10980 10981 10982 10983 10984 10984 10984 10985 10985 10986 10987 10987 10988 10988 10989 10991 10992 10993 10993 10993 10993 10993 10993 10993 10994 10994 10994 10994 10994 10994 10993 10992 10992 10992 10993 10995 10996 10994 10993 10992 10991 10990 10989 10988 10987 10987 10986 10985 10985 10984 10983 10983 10982 10981 10979 10978 10978 10977 10976 10975 10975 10974 10973 10972 10972 10971 10970 10969 10968 10968 10967 10966 10965 10963 10962 10961 10961 10960 10958 10957 10956 10955 10954
10975 10977 10978 10979 10980 10981 10981 10982 10982 10982 10982 10983 10984 10985 10985 10986 10987 10988 10989 10989 10989 10990 10990 10991 10991 10991 10991 10991 10991 10991 10992 10991 10991 10990 10990 10992 10992 10993 10993 10992 10991 10989 10988 10987 10986 10985 10984 10984 10983 10983 10982 10981 10980 10980 10979 10978 10977 10976 10975 10974 10973 10972 10971 10970 10969 10968 10967 10967 10966 10965 10964 10963 10962 10962 10961 10960 10958 10957 10956 10955 10954 10953 10952 10951 10950
10973 10974 10975 10976 10977 10978 10979 10979 10979 10979 10980 10981 10981 10982 10982 10983 10984 10985 10985 10986 10986 10987 10987 10988 10988 10988 10988 10988 10988 10988 10988 10989 10988 10988 10989 10989 10989 10989 10989 10989 10988 10986 10985 10984 10983 10982 10981 10981 10980 10979 10979 10978 10977 10976 10976 10975 10974 10973 10972 10971 10970 10968 10968 10967 10965 10964 10963 10962 10962 10961 10960 10959 10958 10957 10956 10955 10954 10952 10951 10950 10949 10948 10947 10946 10945
10968 10969 10971 10973 10974 10975 10976 10976 10976 10977 10977 10978 10979 10979 10980 10980 10981 10982 10982 10983 10983 10984 10984 10985 10985 10985 10985 10985 10985 10985 10985 10985 10985 10985 10986 10986 10986 10986 10986 10986 10984 10983 10981 10980 10979 10978 10977 10977 10976 10976 10975 10974 10974 10973 10972 10972 10971 10970 10969 10968 10966 10965 10963 10963 10962 10960 10959 10958 10958 10957 10956 10955 10954 10953 10952 10951 10949 10948 10946 10945 10943 10942 10941 10940 10939
10962 10964 10966 10969 10971 10972 10972 10973 10974 10974 10975 10976 10976 10977 10977 10977 10978 10979 10980 10980 10981 10981 10981 10981 10981 10981 10982 10982 10982 10982 10982 10981 10981 10981 10982 10982 10982 10982 10982 10981 10980 10979 10977 10977 10975 10974 10973 10972 10972 10972 10971 10970 10970 10969 10968 10968 10968 10967 10965 10964 10963 10961 10959 10958 10957 10956 10955 10954 10953 10952 10951 10950 10949 10947 10946 10945 10944 10943 10941 10939 10938 10936 10935 10933 10932
10959 10960 10962 10964 10966 10968 10969 10970 10971 10972 10973 10974 10974 10974 10975 10975 10976 10977 10977 10978 10978 10978 10978 10978 10978 10978 10978 10978 10978 10978 10978 10977 10977 10977 10977 10977 10977 10976 10976 10976 10975 10975 10973 10972 10971 10969 10968 10968 10968 10967 10966 10966 10966 10965 10964 10963 10963 10962 10961 10960 10959 10957 10955 10953 10952 10951 10950 10948 10947 10946 10945 10943 10942 10941 10939 10938 10937 10936 10934 10933 10931 10930 10928 10926 10925
10958 10959 10960 10961 10962 10963 10965 10967 10968 10969 10970 10971 10972 10972 10973 10973 10973 10974 10975 10975 10974 10974 10974 10974 10974 10974 10975 10975 10975 10974 10974 10973 10973 10972 10972 10972 10972 10971 10970 10970 10970 10970 10969 10968 10966 10964 10963 10963 10963 10962 10961 10961 10961 10960 10959 10958 10957 10956 10955 10954 10953 10952 10950 10949 10947 10946 10944 10942 10941 10940 10939 10937 10936 10934 10932 10930 10929 10928 10926 10925 10923 10922 10920 10918 10916
10956 10956 10957 10958 10958 10960 10961 10963 10964 10965 10967 10968 10969 10970 10970 10970 10970 10970 10971 10971 10971 10970 10970 10970 10970 10970 10971 10971 10971 10970 10969 10968 10968 10968 10968 10967 10966 10966 10966 10965 10965 10964 10963 10962 10961 10960 10959 10959 10958 10957 10957 10956 10955 10955 10954 10952 10951 10950 10949 10947 10946 10945 10944 10943 10942 10940 10938 10936 10935 10933 10932 10930 10929 10927 10926 10924 10921 10919 10918 10916 10915 10914 10911 10909 10907
10951 10952 10954 10955 10956 10957 10958 10959 10960 10961 10962 10964 10965 10965 10966 10966 10966 10966 10966 10966 10966 10966 10966 10966 10965 10965 10966 10966 10965 10965 10964 10963 10963 10963 10963 10962 10961 10960 10960 10960 10959 10959 10958 10957 10956 10955 10955 10954 10953 10952 10951 10950 10949 10948 10948 10947 10946 10945 10943 10942 10941 10939 10938 10936 10935 10933 10932 10930 10928 10926 10924 10922 10921 10920 10918 10917 10915 10912 10910 10908 10906 10904 10902 10900 10897
10946 10948 10950 10951 10952 10954 10955 10956 10956 10957 10958 10959 10960 10960 10961 10961 10961 10961 10961 10961 10961 10961 10961 10961 10960 10960 10960 10960 10960 10959 10959 10958 10957 10957 10957 10957 10956 10955 10955 10954 10954 10953 10952 10951 10950 10949 10948 10948 10947 10946 10945 10944 10943 10942 10941 10940 10939 10938 10937 10936 10935 10933 10931 10930 10928 10926 10924 10922 10920 10918 10917 10915 10913 10911 10910 10908 10906 10904 10902 10900 10897 10894 10892 10891 10888